Weather in Yasny

Russia / Arkhangel'skaya Oblast'     64°02′13″N   44°05′21″E
temp.,
°C
wind,
m/s
gust,
m/s
humid.,
%
clouds,
%
prec.,
mm/h
press.,
hPa
HPBL,
m
12 april, mon
mon1200:00+2wsw614775 0.0 1024942
03:00+1wsw513805 0.0 1027794
06:00+1wsw512835 0.0 1029688
09:00+4wsw5117597 0.0 1031723
12:00+7wsw51051100 0.0 10321062
15:00+9sw494997 0.0 10321569
18:00+6ssw31060100 0.0 1029412
21:00+6ssw51483100 0.1 1028732
13 april, tue
tue1300:00+7sw51489100 0.0 1027781
03:00+7ssw51590100 0.0 1026596
06:00+6ssw4138899 0.0 1024458
09:00+6ssw41190100 0.3 1022475
12:00+7sw41293100 2.4 1021637
15:00+7sw41294100 4.4 1021744
18:00+8sw499198 0.3 1020595
21:00+8wsw4884100 0.3 1020517
14 april, wed
wed1400:00+6sw2591100 0.0 1020158
03:00+5sw2694100 0.0 1019127
06:00+5ssw2794100 0.0 1018226
09:00+9sw4885100 0.0 1017426
12:00+11sw4876100 0.0 1016865
15:00+9sw2798100 2.7 1014397
18:00+7nw4694100 2.1 1014499
21:00+3nw2696100 4.4 1017442
15 april, thu
thu1500:00+3w3897100 1.3 1017472
03:00+3wnw3889100 1.4 1019675
06:00+1nw377973 0.0 1021522
09:00+3nw34655 0.0 1023954
12:00+5nw34485 0.0 10241535
15:00+6nw354098 0.0 10242042
18:00+5wnw36485 0.0 1025731
21:00+1wnw27695 0.0 1026171
16 april, fri
fri1600:000nw247655 0.0 1027101
03:000nw2376100 0.0 102772
06:000w147054 0.0 1028187
09:00+4wnw24555 0.0 1029805
12:00+6nw4654100 0.1 10291587
15:00+6nnw584753 0.1 10311790
18:00+4n49535 0.0 10321451
21:00+1nnw49705 0.0 1034530